Wichita Jabara, KS

1:21 AM CDT on March 25, 2017 (GMT -0500)
Col Jabara

Weather History for KAAO - January, 2013

Change the Weather History Date:

Thursday, January 24, 2013

  Actual Average (KIAB) Record (KIAB)
Temperature  
Mean Temperature 23 °F -  
Max Temperature 28 °F 41 °F 68 °F (2017)
Min Temperature 18 °F 23 °F 4 °F (2014)
Degree Days  
Heating Degree Days 42    
Moisture  
Dew Point 14 °F    
Average Humidity 68    
Maximum Humidity 96    
Minimum Humidity 40    
Precipitation  
Precipitation 0.00 in - - ()
Sea Level Pressure  
Sea Level Pressure 30.29 in    
Wind  
Wind Speed 12 mph (ENE)    
Max Wind Speed 16 mph    
Max Gust Speed 23 mph    
Visibility 9 miles    
Events      
Averages and records for this station are not official NWS values.
T = Trace of Precipitation, MM = Missing Value Source: NWS Daily Summary

Daily Weather History Graph

Daily Weather History Graph

Search for Another Location

Airport or City:

Trip Planner

Search our weather history database for the weather conditions in past years. The results will help you decide how hot, cold, wet, or windy it might be!

Date:

Astronomy

Jan. 24, 2013 Rise Set
Actual Time 7:38 AM CST 5:43 PM CST
Civil Twilight 7:10 AM CST 6:12 PM CST
Nautical Twilight 6:38 AM CST 6:43 PM CST
Astronomical Twilight 6:07 AM CST 7:15 PM CST
Moon 3:47 PM CST (1/24) 5:36 AM CST (1/24)
Length of Visible Light 11h 01m
Length of Day
10h 05m
Waxing Gibbous, 94% of the Moon is Illuminated
Jan 24
Waxing Gibbous
Jan 26
Full
Feb 3
Last Quarter
Feb 10
New
Feb 17
First Quarter

Hourly Weather History & Observations

Time (CST) Temp. Windchill Dew Point Humidity Pressure Visibility Wind Dir Wind Speed Gust Speed Precip Events Conditions
12:54 AM 28.0 °F 16.1 °F 16.0 °F 61% 30.35 in 10.0 mi NE 16.1 mph - N/A   Clear
1:54 AM 26.1 °F 13.6 °F 15.1 °F 63% 30.36 in 10.0 mi NE 16.1 mph 23.0 mph N/A   Clear
2:54 AM 24.1 °F 11.0 °F 14.0 °F 65% 30.36 in 10.0 mi NE 16.1 mph - N/A   Clear
3:54 AM 23.0 °F 11.1 °F 14.0 °F 68% 30.35 in 10.0 mi NE 12.7 mph 21.9 mph N/A   Clear
4:54 AM 21.0 °F 7.6 °F 12.9 °F 71% 30.36 in 10.0 mi NE 15.0 mph 21.9 mph N/A   Clear
5:54 AM 19.9 °F 7.9 °F 12.9 °F 74% 30.36 in 10.0 mi ENE 11.5 mph - N/A   Clear
6:54 AM 19.9 °F 7.9 °F 12.0 °F 71% 30.36 in 10.0 mi ENE 11.5 mph - N/A   Clear
7:54 AM 18.0 °F 3.6 °F 12.0 °F 78% 30.38 in 10.0 mi NE 15.0 mph - N/A   Mostly Cloudy
8:54 AM 19.0 °F 5.0 °F 10.0 °F 68% 30.38 in 10.0 mi ENE 15.0 mph - N/A   Clear
9:54 AM 19.9 °F 5.7 °F 9.0 °F 62% 30.39 in 10.0 mi ENE 16.1 mph - N/A   Overcast
10:15 AM 21.2 °F 8.3 °F 8.6 °F 58% 30.34 in 10.0 mi ENE 13.8 mph - N/A   Overcast
10:54 AM 21.9 °F 9.2 °F 10.0 °F 60% 30.41 in 10.0 mi NE 13.8 mph - N/A   Overcast
11:54 AM 24.1 °F 12.0 °F 10.0 °F 55% 30.38 in 10.0 mi NE 13.8 mph - N/A   Overcast
12:43 PM 26.6 °F 15.7 °F 8.6 °F 47% 30.26 in 10.0 mi East 12.7 mph - N/A   Overcast
12:54 PM 27.0 °F 16.7 °F 8.1 °F 45% 30.32 in 10.0 mi East 11.5 mph - N/A   Overcast
1:54 PM 28.0 °F 19.3 °F 8.1 °F 43% 30.28 in 10.0 mi ENE 9.2 mph - N/A   Overcast
2:05 PM 28.4 °F 20.4 °F 6.8 °F 40% 30.23 in 10.0 mi East 8.1 mph - N/A   Overcast
2:54 PM 28.0 °F 20.8 °F 8.1 °F 43% 30.25 in 10.0 mi East 6.9 mph - N/A   Overcast
3:54 PM 26.1 °F 17.6 °F 10.9 °F 53% 30.24 in 10.0 mi East 8.1 mph - N/A   Overcast
4:54 PM 25.0 °F 15.5 °F 16.0 °F 69% 30.20 in 10.0 mi SE 9.2 mph - N/A   Overcast
5:54 PM 25.0 °F 20.7 °F 16.0 °F 69% 30.22 in 10.0 mi East 3.5 mph - N/A   Overcast
6:51 PM 24.8 °F 19.1 °F 19.4 °F 80% 30.17 in 7.0 mi East 4.6 mph - N/A   Overcast
6:54 PM 24.1 °F 19.7 °F 19.0 °F 81% 30.23 in 8.0 mi ESE 3.5 mph - N/A   Overcast
7:54 PM 23.0 °F - 21.0 °F 92% 30.24 in 9.0 mi Calm Calm - N/A   Overcast
8:54 PM 23.0 °F 18.4 °F 21.0 °F 92% 30.22 in 5.0 mi NNE 3.5 mph - N/A   Overcast
9:54 PM 23.0 °F - 21.9 °F 96% 30.22 in 5.0 mi Calm Calm - N/A   Overcast
10:14 PM 23.0 °F - 21.2 °F 93% 30.16 in 5.0 mi Calm Calm - N/A   Overcast
10:54 PM 24.1 °F - 21.9 °F 91% 30.22 in 4.0 mi Calm Calm - N/A   Overcast
11:54 PM 24.1 °F - 21.9 °F 91% 30.20 in 6.0 mi Calm Calm - N/A   Overcast